Погода в Казани

Погода в Казани : погода сейчас, прогноз погоды и архив. Всё, что Вы хотите узнать о погоде в Казани!

Хотите узнать прогноз погоды в Казани? Тогда Вам сюда: Погода в Казани

Поиск расширенной информации на нашем сайте:

Другие новости

Новости СМИ2

Главная страница сайта

Новости сайта

02.10.2013

Напоминаем, что на нашем новом сайте вы можете получить высокодетализированные прогнозы погоды по пунктам России, СНГ и мира (включающие важные для авиации метеовеличины, такие как направление и скорость ветра, видимость, явления погоды, количество и форма облачности, нижняя и верхняя граница облачности), а также ознакомиться с разнообразными материалами по авиационной метеорологии и подборкой полезных ссылок на эту тему.

Сайт Метеоцентр.Азия посвящён разработке технологий оптимизации авиаметеорологического обслуживания, включая проектирование и перспективное создание нескольких автоматизированных авиаметеорологических систем:
- система выпуска высокодетальных прогностических карт явлений погоды для нижнего воздушного пространства по России и ближнему зарубежью;
- система верификации прогнозов TAF (выпускаемых синоптиками официальных АМСГ РФ и ближнего зарубежья) и AUTOTAF (выпускаемых сайтом Метеоцентр.Азия) - выявление ошибок, онлайн-сопоставление с фактической погодой METAR, автоматическое внесение коррективов в прогнозы при резком отклонении фактической погоды от прогноза, подсчёт оправдываемости прогнозов по элементам и в целом;
- система обработки, анализа и отображения авиаметеорологической информации для применения провайдерами метеорологической информации.


Погода в Казани - сегодня

Время (UTC), дата Ветер
(°,м/с) 
Видим.   Явления Облачность Т
(°С)
Тd
(°С)
f(%) Тe
(°С)
Pmin
(гПа)
dP
(гПа)
Po
(мм)
O2
(г/м3)
Тmin Tmax R s Состояние
почвы
18 24.04.17 350 (С) 3{11}  4000 м  дождь  10/10 200 м 
[Frnb|Ns]
+3.1 +1.7 91 +2  997.6  -1.4  737  293           
21 24.04.17 300 (СЗ) 4000 м  слаб. ливневой дождь со снегом  10/9 200 м кучево-дожд., средняя 
[Cb cap|Ac und]
+1.2 -0.1 91 999  1.2  738  296           
00 25.04.17 290 (З) 4{10}  4000 м  слаб. ливневой дождь  10/9 200 м кучево-дожд., средняя 
[Cb cap|Ac und]
+2.3 +0.9 90 1002.6  3.6  741  296           
03 25.04.17 270 (З) 10 км  {ливн. осадки}  10/10 300 м 
[Sc]
+2.9 +0.9 87 +2  1006.9  4.3  744  297  +0.9    11    влажная 
06 25.04.17 280 (З) 10 км  {ливн. осадки}  3/3 600 м 
[Sc]
+6.3 +0.8 68 +4  1009.5  2.6  746  294           
09 25.04.17 270 (З) 10 км    9/9 600 м 
[Sc]
+8.6 -0.7 52 +8  1012.2  2.8  748  292           
12 25.04.17 250 (З) 10 км  {ливн. осадки}  8/1 600 м средняя, верхняя 
[Sc|Ac lent|Cs]
+10 -0.7 47 +9  1013.8  1.7  750  291           
15 25.04.17 300 (СЗ) 10 км  слаб. ливневой дождь  10/8 600 м кучево-дожд., средняя, верхняя 
[Cb cap|Ac lent|Ci fib]
+6.2 +1.3 71 +6  1016.1  751  296    +10.2  0.0     
18 25.04.17 210 (ЮЗ) 10 км  слаб. ливневой дождь  8/3 1000 м средняя 
[Sc diur, vesp|Ac As]
+5.1 +0.8 74 +6  1018  1.9  752  298           
21 25.04.17 290 (З) 10 км    6/0 средняя 
[Ac trans]
+4.1 +0.5 77 +5  1019.3  1.2  753  299           
00 26.04.17 300 (СЗ) 10 км    1/0 средняя 
[Ac trans]
+2.9 +0.2 82 +4  1020.6  1.3  754  301           
03 26.04.17 280 (З) 10 км    ясно 
+3.2 +1.1 86 +4  1022.8  2.2  756  301  +2.3    0.0    влажная 
06 26.04.17 270 (З) 10 км    ясно 
+7.1 +0.7 64 +7  1024.2  1.6  757  297           
09 26.04.17 280 (З) 10 км    3/3 1000 м 
[Cu med, cong]
+11.3 -6.6 28 +12  1024.2  0.2  757  294           
12 26.04.17 270 (З) 10 км    3/3 1000 м 
[Cu hum]
+12.6 -6 27 +13  1023.7  -0.5  757  292           
15 26.04.17 200 (Ю) 10 км    10/0 верхняя 
[Cs]
+12.7 -5.4 28 +14  1022.8  -0.8  756  292    +13.4       
18 26.04.17 150 (ЮВ) 10 км    3/0 верхняя 
[Ci fib]
+8.5 -2.4 46 +9  1022.9  -0.1  756  296           
21 26.04.17 150 (ЮВ) 10 км    10/0 средняя 
[Ac und]
+7.4 -1.5 53 +8  1022.1  -0.9  756  297           
00 27.04.17 150 (ЮВ) 10 км    10/0 средняя 
[Ac und]
+7.6 +0.4 60 +8  1020.8  -1.2  755  296           
03 27.04.17 210 (ЮЗ) 10 км    9/0 верхняя 
[Ci fib]
+9.9 +1.5 56 +11  1020.8  -0.1  755  293  +7.4        влажная 
06 27.04.17 230 (ЮЗ) 5-10{11}  10 км    10/0 средняя, верхняя 
[Ac cast|Cs]
+13.7 +1.7 44 +13  1020.7  -0.1  755  289           
09 27.04.17 240 (ЮЗ) 5-12{12}  10 км    10/0 верхняя 
[Cs]
+16.3 +1.6 37 +16  1020.5  0.1  755  287           
12 27.04.17 240 (ЮЗ) 5{14}  10 км    10/0 средняя, верхняя 
[Ac inh|Cs]
+17.2 -0.5 30 +17  1020.5  0.1  755  286           
15 27.04.17 240 (ЮЗ) 3{13}  10 км    10/0 средняя, верхняя 
[Ac lent|Cs]
+17.2 -0.4 30 +18  1020.1  -0.4  754  286    +17.4       
18 27.04.17 190 (Ю) 10 км    10/5 600 м верхняя 
[Sc|Cs]
+15.5 -1.1 32 +17  1020.6  0.4  755  288           
Время (UTC), дата Ветер
(°,м/с) 
Видим.   Явления Облачность Т
(°С)
Тd
(°С)
f(%) Тe
(°С)
Pmin
(гПа)
dP
(гПа)
Po
(мм)
O2
(г/м3)
Тmin Tmax R s Состояние
почвы

Для получения пояснительной информации подведите курсор к названию столбца.

ПОГОДА в Казани - архив

Всё, что Вы хотите узнать о погоде в Казани - удобно и подробно!

Выберите нужную дату (начиная с 1 января 2015* года) и нажмите кнопку "Найти".
Будут отображены архивные сводки погоды по пункту Казань, начиная с указанной даты.


Отображать данные в формате CSV (для использования в таблицах Excel)


Внимание! Наш архив погоды предназначен исключительно для личного некоммерческого использования в познавательных целях. Если Вам необходимы официальные справки о состоянии погоды (для производственных, юридических, коммерческих и т.п. целей), обращайтесь в органы Росгидромета.

*Примечание: данная дата относится к архиву по метеостанциям СССР (Россия, СНГ, Балтия).
Архив по метеостанциям Зарубежной Европы и Азии (кроме Китая) хранится 10 дней, по другим регионам земного шара (Китай, Африка, Америка, Австралия, Океания) - 1 день.

Казань - район местоположения метеостанции


Название, широта, долгота, высота метеостанции:
Казань 55.6°ш. 49.3°д. 116 м над ур. моря [Российская Федерация]

Дополнительная информация

В oтличие oт бoльшинства пoгoдных сайтoв мы публикуем пoдрoбную метеoинфoрмацию в детальнoм прoфессиoнальнoм фoрмате.

Характеристики температуры и влажнoсти вoздуха измеряются на высoте 2 м в тени вдали oт зданий и деревьев.
Скoрoсть ветра измеряется на высoте 10 м (на урoвне рoста челoвека скoрoсть ветра ниже в 1.5-2 раза). Если метеoстанция нахoдится в гoрoде или в лесу, тo скoрoсть ветра занижена на 2-4 м/с пo сравнению с oткрытым местoм. Скoрoсть ветра над акватoриями крупных рек и oзёр, а также на вершинах хoлмoв на 2-5 м/с выше, чем в oбычных услoвиях.
Атмoсфернoе давление в разных тoчках местнoсти мoжет значительнo oтличаться oт давления на метеoстанции, в зависимoсти oт услoвий рельефа (при пoдъёме на 10 м давление пoнижается примернo на 1 мм рт.ст.).